Wind_Speed
1 2 3 3 3 4 4 4 5 4 4 5 4 4 3 3 3 3 3 3 4 4 5 5 5 5 6 6 6 7 7 8 8 8 9 9 9 9 10 11 11 12 12
1 0 2 2 2 3 4 3 4 4 4 5 5 5 4 4 4 4 4 4 4 5 5 5 5 5 6 7 7 7 7 8 9 9 9 9 10 11 11 12 12 12 12
1 1 2 2 2 3 3 4 5 5 5 5 6 6 6 5 5 6 6 6 6 6 6 5 5 6 7 8 8 8 8 8 9 9 9 10 11 12 11 12 12 12 11
2 2 1 2 2 3 4 5 6 6 6 7 7 7 7 7 8 8 8 7 7 7 7 7 7 7 8 8 8 9 9 9 10 10 11 11 12 11 11 11 11 11 11
3 3 3 3 3 4 5 5 6 6 7 8 8 8 8 8 9 9 8 8 8 8 8 8 8 8 9 9 9 10 10 10 11 11 11 12 12 11 11 11 11 11 11
3 4 4 4 5 6 6 6 6 7 7 8 9 9 9 9 9 9 9 9 9 9 9 9 10 10 10 10 10 10 11 11 11 11 12 12 11 12 12 12 12 11 12
4 4 5 5 6 6 7 7 7 8 8 9 10 10 10 10 9 9 9 9 10 10 10 11 11 11 11 11 11 10 10 11 12 12 13 13 13 13 13 13 13 13 13
6 6 6 6 7 7 7 8 9 9 10 10 11 11 11 11 11 10 10 11 11 11 12 12 12 12 12 12 11 11 11 12 13 13 14 13 13 14 14 14 14 14 13
6 6 7 7 7 8 8 9 9 10 10 11 11 12 12 12 11 11 12 12 12 13 13 13 12 12 13 13 13 13 13 13 14 14 14 14 14 14 14 14 14 14 14
6 7 8 8 8 8 9 9 9 10 11 11 11 12 13 12 12 12 13 13 13 13 13 13 13 12 13 13 14 13 14 15 15 16 14 14 14 14 14 14 15 15 15
7 7 8 8 8 8 8 9 9 10 10 11 11 12 12 12 12 13 13 14 14 14 14 14 14 14 13 14 14 15 15 16 16 16 14 14 15 15 15 15 16 16 16
8 8 8 8 9 9 9 9 10 10 11 12 12 12 12 12 13 13 14 15 15 14 14 14 14 14 14 15 15 15 16 16 15 16 15 16 16 16 16 16 17 17 16
8 9 9 10 10 11 11 11 11 11 12 12 12 12 12 13 14 14 14 14 14 14 14 14 15 15 16 16 15 15 15 15 17 17 16 17 17 17 17 18 17 17 17
9 10 10 10 11 12 12 12 12 12 12 12 13 13 13 13 13 13 13 13 13 13 14 14 15 16 16 16 16 16 16 16 17 17 17 18 18 18 18 18 18 18 17
11 11 11 12 13 13 13 13 12 13 13 13 13 13 13 13 14 13 13 13 13 12 13 14 15 16 17 17 17 18 18 18 18 18 18 19 18 19 18 18 19 19 18
12 12 12 13 13 13 13 13 13 13 13 14 14 14 14 13 13 13 13 13 13 13 13 14 15 16 17 17 17 18 18 18 19 19 19 18 19 19 19 19 20 20 19
13 13 14 14 13 13 14 14 14 14 14 14 15 15 14 14 14 14 14 15 15 16 16 16 16 17 17 18 18 19 20 20 19 19 19 19 19 19 19 19 20 20 20
14 15 15 15 14 14 14 15 15 14 14 14 15 15 15 15 16 15 16 16 17 18 17 17 18 18 19 20 21 21 21 20 20 20 20 20 20 20 20 20 20 20 21
16 16 15 15 15 15 14 14 14 15 15 15 15 15 16 16 17 17 18 18 19 19 19 18 19 19 20 21 21 21 22 22 22 22 21 21 21 21 21 21 21 21 21
16 16 16 16 16 16 15 15 15 15 16 16 16 16 17 17 18 18 19 20 20 20 20 21 21 21 22 23 23 23 23 23 22 22 22 22 22 22 22 22 22 21 21
17 17 17 17 17 16 16 17 17 18 18 18 17 18 18 19 19 20 20 21 21 22 22 22 22 22 23 24 24 24 24 24 24 23 23 23 23 23 23 22 22 21 22
19 19 19 19 18 18 18 19 20 20 20 20 20 20 20 20 21 21 22 22 23 23 23 24 24 24 25 25 25 26 26 26 26 26 25 25 24 24 24 23 22 22 23
20 20 20 20 20 20 21 21 22 22 22 23 23 22 22 22 22 22 23 23 24 24 25 25 25 25 26 26 27 27 26 26 26 26 26 26 26 25 25 24 24 24 24
21 22 22 22 22 22 22 23 23 24 24 25 25 25 24 24 24 24 25 25 25 26 26 27 27 27 27 27 27 27 27 27 26 27 27 27 27 26 25 25 24 25 25
22 22 23 23 23 23 23 24 25 26 26 26 27 26 25 25 25 26 26 26 26 27 28 28 28 28 29 29 29 28 28 28 27 27 27 27 27 26 26 26 26 26 25
23 23 23 23 23 24 24 26 26 27 27 27 27 27 27 26 26 27 28 28 28 28 28 28 29 29 30 30 30 30 30 30 29 28 28 28 28 27 27 27 27 26 26
Wind_Direction
126 169 177 180 190 205 222 235 232 234 238 245 247 251 262 276 283 293 297 299 296 298 301 310 309 308 307 306 300 300 297 297 298 293 286 286 289 289 289 283 280 275 274
14 297 219 228 236 242 243 253 251 251 244 251 254 257 266 274 285 291 291 292 296 302 303 306 308 309 311 311 312 310 304 301 300 299 294 293 294 294 292 285 284 282 275
313 314 310 289 275 267 258 262 271 267 270 275 274 271 271 268 280 282 282 284 292 298 300 307 310 310 313 312 306 306 304 303 305 304 300 297 294 295 293 290 288 286 279
340 328 318 303 291 290 277 275 278 274 275 279 281 280 277 275 275 274 279 287 294 293 294 299 303 306 308 308 307 307 305 302 303 303 301 300 298 295 296 294 292 291 286
341 323 313 304 298 295 293 291 291 287 285 286 284 286 282 279 277 278 279 280 287 288 290 292 297 300 304 303 302 301 301 301 303 303 303 303 300 295 297 295 293 291 288
344 329 317 309 302 295 292 293 293 291 291 292 294 294 287 283 280 277 278 280 285 287 293 294 298 300 303 303 304 303 304 305 306 305 305 307 304 300 298 296 293 290 288
347 329 317 320 311 298 296 297 297 297 295 294 293 292 289 284 280 275 280 285 287 287 290 293 297 298 301 303 302 301 303 304 305 305 304 305 303 300 299 296 292 289 290
352 338 326 320 322 318 307 303 297 296 297 296 293 291 290 289 282 284 284 283 286 288 289 291 295 295 294 298 298 297 300 301 304 304 305 302 300 297 297 297 294 290 290
349 343 334 327 323 321 315 307 302 296 299 299 296 292 290 292 288 288 286 284 284 286 288 291 293 293 291 292 294 292 294 295 300 303 303 301 299 299 297 295 294 290 290
340 337 333 332 325 321 318 315 309 304 303 298 295 293 291 292 294 293 291 291 289 287 289 292 294 294 293 293 291 289 293 295 297 300 303 301 299 299 298 297 294 290 290
338 333 328 328 330 326 321 318 314 309 308 302 300 298 295 296 299 298 296 296 294 290 286 288 291 292 294 291 288 287 293 296 295 298 299 300 299 299 298 297 295 293 291
335 334 328 324 323 325 323 318 315 313 310 305 300 298 297 300 299 300 301 298 296 295 293 291 293 294 293 292 292 289 292 296 295 297 297 298 298 297 296 295 295 293 293
333 335 329 322 320 321 319 317 314 312 310 306 302 302 302 300 301 302 303 303 298 295 293 294 295 296 297 295 293 291 292 295 296 298 296 295 295 295 295 295 294 293 293
330 333 334 328 324 320 318 317 314 311 308 306 303 305 304 302 303 301 302 304 303 300 296 295 295 294 296 296 292 290 291 294 297 297 296 295 295 294 294 294 293 291 292
321 325 326 324 321 319 317 314 309 309 307 306 304 304 304 304 302 300 303 302 301 302 301 298 296 295 294 294 292 290 292 294 294 295 296 297 296 295 293 293 291 292 291
315 318 320 316 316 315 315 314 311 309 309 306 307 307 306 306 306 305 304 303 302 301 302 301 299 299 298 296 297 296 298 297 296 295 295 296 296 296 294 292 292 293 290
313 313 314 312 311 311 311 311 311 309 307 307 308 310 309 308 308 306 304 304 305 304 303 302 300 299 298 298 298 297 296 294 294 294 295 297 296 295 296 295 293 292 290
307 309 310 311 309 309 309 309 309 307 306 307 308 309 307 306 305 305 304 304 305 304 302 301 301 299 299 298 298 297 296 296 297 296 296 296 296 295 295 294 293 290 289
304 306 308 306 306 307 308 309 307 305 306 307 306 306 306 305 303 302 300 300 301 302 302 300 300 299 298 298 297 298 298 297 296 295 295 296 296 296 295 294 292 290 290
298 301 302 303 305 305 304 304 302 303 304 304 304 304 304 304 303 301 300 300 301 301 301 300 299 298 298 297 297 297 297 298 296 295 293 295 296 296 294 293 290 289 291
296 297 298 298 300 300 299 299 299 301 304 302 302 303 303 301 300 300 300 300 300 299 299 298 298 298 298 297 298 297 296 295 294 293 292 293 294 294 293 291 290 290 291
293 294 295 296 296 296 296 298 298 298 301 303 303 304 304 303 301 301 301 300 299 300 299 297 296 297 297 296 297 297 297 295 293 293 291 292 292 292 292 291 289 290 292
291 290 290 292 293 294 294 294 295 296 299 301 301 301 301 302 302 301 301 301 301 301 300 298 298 298 298 297 297 296 295 294 293 292 290 290 290 290 290 289 289 290 291
291 292 292 291 291 293 293 294 295 296 297 299 299 301 300 300 300 299 299 299 299 299 299 300 299 298 298 297 296 295 295 295 294 293 291 289 289 289 289 288 288 289 289
290 291 291 293 293 293 293 295 295 296 296 296 297 298 298 297 297 298 298 297 297 298 299 298 298 297 297 296 295 294 293 293 294 292 291 290 288 288 289 289 288 288 287
287 289 291 292 293 294 294 295 296 297 297 297 296 296 296 297 297 297 298 297 297 298 298 298 297 296 296 295 294 293 291 291 291 291 289 289 288 286 286 287 288 287 286
Height
5887 5888 5888 5888 5889 5890 5891 5891 5891 5891 5892 5892 5893 5893 5893 5894 5894 5894 5894 5894 5894 5893 5893 5893 5893 5893 5892 5892 5892 5891 5891 5890 5890 5889 5889 5888 5888 5887 5887 5887 5886 5886 5886
5887 5888 5888 5888 5889 5890 5890 5891 5891 5891 5891 5891 5892 5892 5893 5893 5893 5893 5893 5893 5893 5892 5892 5892 5892 5892 5891 5891 5890 5890 5889 5889 5888 5887 5887 5886 5886 5885 5884 5884 5883 5883 5883
5888 5888 5889 5889 5889 5890 5890 5890 5890 5890 5891 5891 5891 5891 5892 5892 5892 5892 5892 5892 5892 5891 5891 5891 5891 5890 5890 5889 5889 5888 5887 5887 5886 5885 5885 5884 5883 5882 5882 5881 5880 5880 5880
5888 5888 5889 5889 5889 5890 5890 5890 5890 5890 5890 5890 5890 5890 5890 5890 5890 5890 5890 5891 5890 5890 5890 5889 5889 5889 5888 5887 5887 5886 5886 5885 5884 5883 5883 5882 5881 5880 5879 5878 5877 5877 5877
5888 5889 5889 5889 5889 5889 5889 5889 5889 5889 5889 5889 5889 5889 5889 5889 5888 5888 5889 5889 5889 5888 5888 5888 5888 5887 5886 5886 5885 5884 5883 5883 5882 5881 5880 5879 5878 5877 5876 5875 5874 5874 5874
5889 5889 5889 5889 5889 5889 5889 5888 5888 5888 5888 5888 5888 5887 5887 5887 5887 5887 5887 5887 5887 5887 5886 5886 5886 5885 5884 5883 5883 5882 5881 5880 5879 5878 5877 5876 5875 5874 5873 5872 5872 5871 5871
5889 5889 5889 5889 5888 5888 5888 5887 5887 5887 5887 5887 5887 5886 5886 5885 5885 5885 5885 5885 5885 5885 5885 5884 5884 5883 5882 5881 5880 5879 5878 5878 5877 5876 5874 5873 5872 5871 5870 5869 5868 5868 5868
5889 5889 5888 5888 5887 5887 5887 5886 5886 5886 5885 5885 5885 5884 5884 5884 5883 5883 5883 5883 5883 5883 5882 5881 5881 5880 5879 5878 5878 5877 5876 5875 5874 5873 5871 5870 5869 5868 5867 5866 5865 5864 5864
5888 5888 5888 5887 5887 5886 5886 5885 5885 5884 5884 5883 5883 5883 5882 5881 5880 5881 5881 5880 5880 5880 5879 5878 5878 5877 5876 5875 5875 5874 5873 5872 5871 5869 5868 5867 5866 5864 5863 5862 5861 5861 5860
5888 5887 5887 5886 5886 5885 5884 5883 5883 5882 5882 5882 5881 5880 5880 5879 5879 5879 5878 5877 5877 5876 5876 5875 5874 5874 5873 5872 5871 5870 5869 5868 5867 5866 5864 5863 5862 5861 5860 5859 5858 5857 5856
5887 5886 5886 5885 5885 5884 5883 5882 5881 5881 5880 5880 5879 5878 5877 5877 5876 5876 5875 5875 5874 5873 5873 5872 5871 5870 5869 5868 5868 5866 5865 5864 5862 5862 5861 5860 5858 5857 5856 5855 5854 5852 5851
5887 5886 5885 5884 5883 5883 5882 5881 5880 5879 5878 5877 5876 5876 5875 5874 5874 5873 5872 5871 5871 5870 5869 5869 5868 5867 5866 5865 5864 5863 5862 5860 5858 5857 5857 5856 5854 5853 5852 5850 5849 5848 5847
5886 5885 5884 5883 5882 5881 5880 5879 5878 5877 5876 5875 5874 5873 5873 5872 5871 5870 5869 5868 5867 5867 5866 5865 5864 5863 5862 5861 5859 5859 5858 5856 5855 5853 5852 5851 5850 5849 5847 5846 5845 5843 5842
5885 5884 5883 5882 5881 5880 5879 5877 5877 5876 5874 5873 5872 5871 5870 5869 5868 5867 5866 5865 5864 5864 5863 5862 5861 5859 5858 5857 5855 5855 5854 5852 5851 5849 5848 5847 5845 5844 5843 5841 5840 5838 5837
5884 5882 5881 5880 5879 5878 5877 5876 5874 5873 5872 5871 5870 5869 5867 5866 5865 5864 5863 5862 5862 5861 5860 5858 5857 5856 5854 5853 5852 5851 5849 5847 5846 5845 5843 5842 5840 5839 5838 5836 5835 5833 5832
5882 5881 5879 5878 5877 5876 5875 5874 5872 5871 5870 5868 5867 5865 5864 5863 5862 5861 5860 5859 5858 5856 5855 5854 5853 5852 5850 5849 5848 5846 5845 5843 5841 5840 5838 5837 5835 5834 5832 5831 5830 5828 5827
5880 5879 5877 5876 5875 5873 5872 5871 5870 5868 5867 5865 5864 5863 5861 5860 5859 5857 5856 5855 5854 5852 5851 5850 5849 5847 5845 5844 5843 5842 5840 5838 5836 5835 5833 5832 5830 5828 5827 5825 5824 5823 5821
5877 5876 5875 5874 5872 5871 5870 5868 5867 5865 5864 5863 5861 5860 5859 5857 5856 5854 5853 5851 5850 5848 5847 5846 5844 5843 5841 5839 5839 5837 5835 5833 5831 5830 5828 5826 5825 5823 5821 5819 5818 5817 5815
5874 5873 5872 5871 5869 5868 5867 5865 5864 5862 5861 5860 5858 5857 5855 5854 5852 5851 5849 5848 5846 5844 5842 5841 5840 5838 5836 5834 5833 5831 5829 5828 5826 5824 5823 5821 5819 5817 5815 5814 5812 5811 5810
5871 5870 5869 5867 5866 5865 5863 5862 5861 5859 5858 5856 5855 5853 5851 5850 5848 5846 5845 5843 5841 5840 5838 5836 5835 5833 5831 5829 5827 5826 5824 5822 5820 5819 5817 5815 5814 5811 5809 5808 5806 5805 5804
5867 5867 5865 5864 5863 5861 5860 5859 5857 5856 5854 5852 5851 5849 5847 5845 5844 5842 5840 5838 5837 5835 5833 5831 5829 5827 5825 5823 5821 5819 5817 5816 5814 5812 5811 5809 5808 5806 5804 5802 5800 5799 5797
5863 5862 5861 5860 5858 5857 5856 5854 5853 5851 5850 5848 5846 5844 5842 5841 5839 5837 5835 5833 5831 5829 5827 5825 5823 5821 5819 5817 5815 5813 5811 5809 5808 5806 5804 5803 5801 5799 5797 5796 5794 5792 5791
5858 5857 5856 5855 5854 5852 5851 5849 5848 5846 5845 5843 5841 5839 5838 5836 5834 5832 5829 5828 5825 5823 5821 5819 5817 5815 5813 5811 5808 5806 5804 5802 5800 5799 5797 5795 5794 5792 5790 5789 5787 5786 5784
5853 5852 5851 5850 5848 5847 5846 5844 5842 5841 5839 5838 5836 5834 5832 5830 5828 5826 5824 5822 5820 5817 5815 5813 5810 5808 5806 5803 5801 5799 5797 5795 5793 5791 5789 5788 5786 5785 5783 5781 5780 5778 5777
5848 5846 5845 5844 5843 5842 5840 5838 5836 5835 5833 5831 5830 5828 5826 5824 5822 5820 5818 5816 5814 5811 5808 5806 5803 5800 5798 5795 5793 5791 5789 5787 5786 5784 5781 5780 5778 5777 5775 5774 5772 5771 5770
5842 5841 5839 5838 5837 5835 5834 5832 5830 5828 5826 5825 5823 5821 5819 5817 5815 5813 5811 5809 5807 5804 5801 5799 5796 5793 5790 5787 5785 5783 5781 5779 5777 5776 5774 5772 5770 5769 5768 5766 5764 5763 5762